Weather History for KTMK - February, 2012

Change the Weather History Date:

Saturday, February 25, 2012

  Actual Average (KMMV) Record (KMMV)
Temperature  
Mean Temperature 44 °F 44 °F  
Max Temperature 48 °F 52 °F 68 °F (1991)
Min Temperature 41 °F 35 °F 12 °F (1920)
Degree Days  
Heating Degree Days 20 21  
Month to date heating degree days 562  
Since 1 July heating degree days 3317  
Cooling Degree Days 0 0  
Month to date cooling degree days 0  
Year to date cooling degree days 0  
Moisture  
Dew Point 35 °F    
Average Humidity 72    
Maximum Humidity 87    
Minimum Humidity 58    
Precipitation  
Precipitation 0.08 in 0.16 in 1.40 in (1896)
Month to date precipitation 3.94  
Year to date precipitation 10.04  
Sea Level Pressure  
Sea Level Pressure 30.20 in    
Wind  
Wind Speed 17 mph (West)    
Max Wind Speed 26 mph    
Max Gust Speed 40 mph    
Visibility 8 miles    
Events Rain    
T = Trace of Precipitation, MM = Missing Value Source: NWS Daily Summary

Daily Weather History Graph

Daily Weather History Graph

Search for Another Location

Airport or City:

Trip Planner

Search our weather history database for the weather conditions in past years. The results will help you decide how hot, cold, wet, or windy it might be!

Date:

Astronomy

Feb. 25, 2012 Rise Set
Actual Time 8:01 AM MST 6:56 PM MST
Civil Twilight 7:31 AM MST 7:26 PM MST
Nautical Twilight 6:57 AM MST 8:00 PM MST
Astronomical Twilight 6:22 AM MST 8:34 PM MST
Moon 9:13 AM MST (2/25) 11:18 PM MST (2/25)
Length of Visible Light 11h 54m
Length of Day
10h 55m
Waxing Crescent, 14% of the Moon is Illuminated
Feb 25
Waxing Crescent
Feb 29
First Quarter
Mar 8
Full
Mar 14
Last Quarter
Mar 22
New

Hourly Weather History & Observations

Time (MST) Temp. Windchill Dew Point Humidity Pressure Visibility Wind Dir Wind Speed Gust Speed Precip Events Conditions
12:15 AM 44.6 °F 35.9 °F 39.2 °F 81% 29.86 in 7.0 mi West 23.0 mph 38.0 mph N/A Rain Rain
12:35 AM 44.6 °F 36.1 °F 37.4 °F 76% 29.87 in 7.0 mi West 21.9 mph 29.9 mph N/A   Overcast
12:55 AM 41.0 °F 30.7 °F 37.4 °F 87% 29.90 in 2.0 mi West 25.3 mph 40.3 mph 0.03 in Rain Light Rain
1:15 AM 42.8 °F 33.3 °F 37.4 °F 81% 29.91 in 7.0 mi West 24.2 mph 34.5 mph N/A   Overcast
1:35 AM 42.8 °F 35.4 °F 37.4 °F 81% 29.92 in 7.0 mi WSW 15.0 mph 23.0 mph N/A   Overcast
2:15 AM 44.6 °F 36.9 °F 35.6 °F 71% 29.94 in 7.0 mi WSW 18.4 mph 26.5 mph N/A   Overcast
2:35 AM 44.6 °F 38.8 °F 35.6 °F 71% 29.96 in 7.0 mi West 11.5 mph 19.6 mph N/A   Overcast
2:55 AM 44.6 °F 36.4 °F 35.6 °F 71% 29.98 in 7.0 mi West 20.7 mph 32.2 mph N/A   Mostly Cloudy
3:15 AM 44.6 °F 36.1 °F 32.0 °F 61% 30.00 in 10.0 mi West 21.9 mph 32.2 mph N/A   Mostly Cloudy
3:35 AM 44.6 °F 36.9 °F 33.8 °F 66% 30.01 in 10.0 mi West 18.4 mph 27.6 mph N/A   Overcast
3:55 AM 42.8 °F 33.8 °F 35.6 °F 76% 30.03 in 7.0 mi WNW 21.9 mph 36.8 mph N/A Rain Light Rain
4:15 AM 42.8 °F 34.8 °F 35.6 °F 76% 30.03 in 10.0 mi West 17.3 mph 24.2 mph N/A   Overcast
4:35 AM 44.6 °F 35.7 °F 33.8 °F 66% 30.03 in 10.0 mi West 24.2 mph 32.2 mph N/A   Mostly Cloudy
5:15 AM 44.6 °F 37.4 °F 33.8 °F 66% 30.05 in 10.0 mi West 16.1 mph 31.1 mph N/A   Overcast
5:35 AM 41.0 °F 33.9 °F 33.8 °F 76% 30.06 in 7.0 mi West 12.7 mph 23.0 mph 0.01 in Rain Light Rain
5:55 AM 42.8 °F 36.2 °F 35.6 °F 76% 30.07 in 10.0 mi West 12.7 mph 23.0 mph 0.01 in   Mostly Cloudy
6:35 AM 42.8 °F 35.1 °F 33.8 °F 70% 30.10 in 10.0 mi West 16.1 mph 26.5 mph N/A   Mostly Cloudy
6:55 AM 42.8 °F 35.4 °F 33.8 °F 70% 30.12 in 10.0 mi West 15.0 mph 27.6 mph N/A   Mostly Cloudy
7:15 AM 42.8 °F 35.4 °F 35.6 °F 76% 30.12 in 10.0 mi West 15.0 mph 25.3 mph N/A   Mostly Cloudy
7:35 AM 42.8 °F 33.8 °F 33.8 °F 70% 30.13 in 10.0 mi NW 21.9 mph 27.6 mph N/A   Overcast
7:55 AM 41.0 °F 34.7 °F 35.6 °F 81% 30.14 in 7.0 mi WNW 10.4 mph 18.4 mph N/A   Mostly Cloudy
8:15 AM 42.8 °F 33.3 °F 33.8 °F 70% 30.15 in 7.0 mi West 24.2 mph 32.2 mph N/A   Overcast
8:35 AM 41.0 °F 32.5 °F 32.0 °F 70% 30.17 in 10.0 mi West 17.3 mph 29.9 mph N/A   Light Drizzle
8:55 AM 42.8 °F 33.8 °F 33.8 °F 70% 30.18 in 7.0 mi West 21.9 mph 34.5 mph N/A   Mostly Cloudy
9:15 AM 41.0 °F 33.5 °F 32.0 °F 70% 30.19 in 10.0 mi West 13.8 mph 23.0 mph N/A   Overcast
9:35 AM 42.8 °F 34.3 °F 32.0 °F 66% 30.20 in 10.0 mi West 19.6 mph 31.1 mph N/A   Overcast
9:55 AM 42.8 °F 35.8 °F 33.8 °F 70% 30.22 in 10.0 mi West 13.8 mph 24.2 mph N/A   Scattered Clouds
10:15 AM 42.8 °F 35.1 °F 35.6 °F 76% 30.22 in 7.0 mi West 16.1 mph 21.9 mph N/A   Light Drizzle
10:35 AM 41.0 °F 32.5 °F 35.6 °F 81% 30.24 in 7.0 mi WNW 17.3 mph 33.4 mph N/A   Mostly Cloudy
10:55 AM 42.8 °F 36.6 °F 35.6 °F 76% 30.25 in 10.0 mi West 11.5 mph - N/A   Overcast
11:55 AM 44.6 °F 38.8 °F 35.6 °F 71% 30.29 in 7.0 mi NW 11.5 mph 29.9 mph N/A   Overcast
12:15 PM 44.6 °F 35.3 °F 33.8 °F 66% 30.29 in 7.0 mi West 26.5 mph 34.5 mph N/A   Overcast
12:35 PM 44.6 °F 38.4 °F 35.6 °F 71% 30.30 in 10.0 mi West 12.7 mph 23.0 mph N/A   Overcast
12:55 PM 44.6 °F 38.1 °F 33.8 °F 66% 30.31 in 7.0 mi West 13.8 mph 25.3 mph N/A   Overcast
1:15 PM 46.4 °F 37.9 °F 35.6 °F 66% 30.31 in 7.0 mi West 25.3 mph 33.4 mph N/A   Mostly Cloudy
1:35 PM 44.6 °F 38.8 °F 35.6 °F 71% 30.31 in 10.0 mi West 11.5 mph 18.4 mph N/A   Overcast
1:55 PM 46.4 °F 38.7 °F 35.6 °F 66% 30.31 in 7.0 mi West 20.7 mph 31.1 mph N/A   Overcast
2:35 PM 48.2 °F - 33.8 °F 58% 30.32 in 10.0 mi West 20.7 mph 28.8 mph N/A   Mostly Cloudy
2:55 PM 48.2 °F - 33.8 °F 58% 30.33 in 10.0 mi West 23.0 mph 29.9 mph N/A   Mostly Cloudy
3:15 PM 46.4 °F 40.7 °F 33.8 °F 62% 30.33 in 10.0 mi West 12.7 mph 24.2 mph N/A   Overcast
3:35 PM 46.4 °F 41.1 °F 33.8 °F 62% 30.33 in 7.0 mi West 11.5 mph 21.9 mph N/A   Overcast
3:55 PM 46.4 °F 41.5 °F 33.8 °F 62% 30.33 in 7.0 mi West 10.4 mph 27.6 mph 0.01 in Rain Light Rain
4:15 PM 48.2 °F - 35.6 °F 62% 30.33 in 7.0 mi West 13.8 mph 26.5 mph N/A   Overcast
4:55 PM 44.6 °F 39.2 °F 33.8 °F 66% 30.34 in 10.0 mi West 10.4 mph 17.3 mph N/A   Overcast
5:15 PM 42.8 °F 38.0 °F 33.8 °F 70% 30.34 in 7.0 mi WSW 8.1 mph - N/A Rain Light Rain
5:35 PM 44.6 °F 39.2 °F 35.6 °F 71% 30.34 in 7.0 mi SW 10.4 mph - N/A   Overcast
5:55 PM 42.8 °F 37.5 °F 35.6 °F 76% 30.34 in 3.0 mi WNW 9.2 mph - 0.03 in Rain Light Rain
6:35 PM 42.8 °F 37.5 °F 33.8 °F 70% 30.34 in 7.0 mi West 9.2 mph - N/A   Overcast
6:55 PM 42.8 °F 38.0 °F 35.6 °F 76% 30.35 in 7.0 mi WSW 8.1 mph - N/A   Mostly Cloudy
7:15 PM 42.8 °F 38.6 °F 33.8 °F 70% 30.35 in 7.0 mi West 6.9 mph - N/A   Mostly Cloudy
7:35 PM 42.8 °F 36.2 °F 33.8 °F 70% 30.35 in 10.0 mi West 12.7 mph 18.4 mph N/A   Overcast
7:55 PM 42.8 °F 37.0 °F 33.8 °F 70% 30.36 in 10.0 mi SW 10.4 mph 16.1 mph N/A   Mostly Cloudy
8:15 PM 41.0 °F 36.4 °F 33.8 °F 76% 30.36 in 10.0 mi SW 6.9 mph - N/A   Mostly Cloudy
8:35 PM 41.0 °F 32.5 °F 35.6 °F 81% 30.36 in 10.0 mi West 17.3 mph 20.7 mph N/A   Mostly Cloudy
8:55 PM 42.8 °F 37.5 °F 35.6 °F 76% 30.36 in 10.0 mi WNW 9.2 mph 18.4 mph N/A   Overcast
9:15 PM 42.8 °F 39.3 °F 33.8 °F 70% 30.36 in 10.0 mi WSW 5.8 mph - N/A   Overcast
9:35 PM 42.8 °F 38.0 °F 33.8 °F 70% 30.36 in 10.0 mi West 8.1 mph - N/A   Overcast
9:55 PM 41.0 °F 36.4 °F 35.6 °F 81% 30.35 in 10.0 mi WSW 6.9 mph - N/A   Overcast
10:15 PM 41.0 °F 36.4 °F 35.6 °F 81% 30.36 in 10.0 mi SSW 6.9 mph - N/A   Overcast
10:35 PM 41.0 °F 37.1 °F 35.6 °F 81% 30.36 in 10.0 mi SW 5.8 mph - N/A   Overcast
10:55 PM 42.8 °F 39.3 °F 35.6 °F 76% 30.36 in 10.0 mi SW 5.8 mph - N/A   Overcast
11:35 PM 41.0 °F 37.1 °F 35.6 °F 81% 30.35 in 10.0 mi SW 5.8 mph - N/A Rain Light Rain
11:55 PM 41.0 °F 36.4 °F 35.6 °F 81% 30.35 in 10.0 mi South 6.9 mph - N/A   Overcast